TimeMDT,TemperatureF,Dew PointF,Humidity,Sea Level PressureIn,VisibilityMPH,Wind Direction,Wind SpeedMPH,Gust SpeedMPH,PrecipitationIn,Events,Conditions,WindDirDegrees,DateUTC
12:55 AM,57.4,34.3,42,29.76,10.0,NNW,6.9,-,N/A,,Clear,340,2012-10-18 06:55:00
1:55 AM,59.4,27.1,29,29.77,10.0,NNE,11.5,-,N/A,,Clear,20,2012-10-18 07:55:00
2:55 AM,59.0,17.8,20,29.77,10.0,NNE,8.1,-,N/A,,Clear,30,2012-10-18 08:55:00
3:55 AM,55.6,17.6,23,29.79,10.0,North,10.4,-,N/A,,Clear,10,2012-10-18 09:55:00
4:55 AM,54.1,15.8,22,29.81,10.0,NNE,12.7,-,N/A,,Clear,20,2012-10-18 10:55:00
5:55 AM,54.3,11.7,18,29.82,10.0,NNE,12.7,-,N/A,,Clear,30,2012-10-18 11:55:00
6:55 AM,55.8,11.3,17,29.86,10.0,NNE,11.5,-,N/A,,Clear,20,2012-10-18 12:55:00
7:55 AM,54.7,12.2,19,29.89,10.0,NNE,10.4,-,N/A,,Clear,20,2012-10-18 13:55:00
8:55 AM,56.5,10.9,16,29.92,10.0,NNE,11.5,-,N/A,,Clear,20,2012-10-18 14:55:00
9:55 AM,71.2,4.3,7,29.89,10.0,North,17.3,-,N/A,,Clear,10,2012-10-18 15:55:00
10:55 AM,73.8,3.6,6,29.89,10.0,North,15.0,-,N/A,,Clear,10,2012-10-18 16:55:00
11:55 AM,75.4,7.5,7,29.89,10.0,NNW,12.7,-,N/A,,Clear,340,2012-10-18 17:55:00
12:55 PM,78.1,6.1,6,29.86,10.0,North,15.0,24.2,N/A,,Clear,350,2012-10-18 18:55:00
1:55 PM,79.3,7.0,6,29.83,10.0,NW,11.5,-,N/A,,Clear,320,2012-10-18 19:55:00
2:55 PM,79.5,10.6,7,29.81,10.0,North,16.1,23.0,N/A,,Clear,350,2012-10-18 20:55:00
3:55 PM,80.1,10.9,7,29.81,10.0,North,12.7,-,N/A,,Clear,360,2012-10-18 21:55:00
4:55 PM,80.2,11.1,7,29.79,10.0,NNE,11.5,-,N/A,,Clear,30,2012-10-18 22:55:00
5:55 PM,78.8,10.0,7,29.80,10.0,NNE,3.5,-,N/A,,Clear,20,2012-10-18 23:55:00
6:55 PM,73.8,13.8,10,29.81,10.0,NE,4.6,-,N/A,,Clear,50,2012-10-19 00:55:00
7:55 PM,64.0,17.4,17,29.86,10.0,NW,3.5,-,N/A,,Clear,320,2012-10-19 01:55:00
8:55 PM,64.8,16.3,15,29.85,10.0,Calm,Calm,-,N/A,,Clear,0,2012-10-19 02:55:00
9:55 PM,55.9,18.7,23,29.84,10.0,NE,6.9,-,N/A,,Clear,50,2012-10-19 03:55:00
10:55 PM,56.5,18.9,23,29.83,10.0,East,6.9,-,N/A,,Clear,90,2012-10-19 04:55:00
11:55 PM,53.8,17.6,24,29.85,10.0,East,5.8,-,N/A,,Clear,80,2012-10-19 05:55:00